When you browse on this site, cookies collect data to enhance your experience and personalize the content and advertising you see.
Visit our Privacy Policy to learn more. By continuing to use the site, you agree to this use of cookies and data.
  • In Czech Republic
  • List of Countries
  • For 7 days
  • Water Temperature
  • Weather Map
  • Weather Widgets
  • user-avatar
    Login

    Hourly Weather Lebrija

    Today, 22 November, Friday

    Time Temperature Precipitation Wind Pressure Humidity
    00:00 +20°C° 0.5 mm 1 mps 671 mmHg 93%
    01:00 +19°C° 0.5 mm 1 mps 671 mmHg 93%
    02:00 +19°C° 0.4 mm 1 mps 670 mmHg 92%
    03:00 +19°C° 0.4 mm 1 mps 670 mmHg 92%
    04:00 +19°C° 0.4 mm 1 mps 670 mmHg 92%
    05:00 +20°C° 0.2 mm 1 mps 671 mmHg 90%
    06:00 +18°C° 0.2 mm 0 mps 671 mmHg 89%
    07:00 +19°C° 0.2 mm 0 mps 672 mmHg 88%
    08:00 +22°C° 0.2 mm 1 mps 672 mmHg 84%
    09:00 +24°C° 0.2 mm 1 mps 672 mmHg 79%
    10:00 +26°C° 0.2 mm 1 mps 673 mmHg 75%
    11:00 +25°C° 0.7 mm 1 mps 672 mmHg 77%
    12:00 +25°C° 0.7 mm 1 mps 671 mmHg 80%
    13:00 +25°C° 0.7 mm 1 mps 670 mmHg 82%
    14:00 +25°C° 0.8 mm 1 mps 670 mmHg 83%
    15:00 +25°C° 0.8 mm 1 mps 669 mmHg 84%
    16:00 +24°C° 0.8 mm 1 mps 669 mmHg 85%
    17:00 +23°C° 0.8 mm 1 mps 669 mmHg 88%
    18:00 +22°C° 0.8 mm 1 mps 670 mmHg 91%
    19:00 +21°C° 0.8 mm 1 mps 670 mmHg 94%
    20:00 +21°C° 0.6 mm 1 mps 671 mmHg 93%
    21:00 +19°C° 0.6 mm 0 mps 671 mmHg 93%
    22:00 +18°C° 0.6 mm 0 mps 671 mmHg 92%
    23:00 +20°C° 1.3 mm 1 mps 671 mmHg 93%

    Tomorrow, 23 November, Saturday

    Time Temperature Precipitation Wind Pressure Humidity
    00:00 +20°C° 1.3 mm 1 mps 671 mmHg 93%
    01:00 +20°C° 1.3 mm 1 mps 671 mmHg 93%
    02:00 +20°C° 1.6 mm 1 mps 670 mmHg 93%
    03:00 +20°C° 1.6 mm 1 mps 670 mmHg 93%
    04:00 +18°C° 1.6 mm 0 mps 670 mmHg 94%
    05:00 +18°C° 0.8 mm 0 mps 671 mmHg 93%
    06:00 +18°C° 0.8 mm 0 mps 671 mmHg 93%
    07:00 +19°C° 0.8 mm 0 mps 672 mmHg 93%
    08:00 +22°C° 0.4 mm 1 mps 672 mmHg 90%
    09:00 +23°C° 0.4 mm 1 mps 672 mmHg 87%
    10:00 +24°C° 0.4 mm 1 mps 673 mmHg 85%
    11:00 +24°C° 0.6 mm 1 mps 672 mmHg 84%
    12:00 +25°C° 0.6 mm 1 mps 671 mmHg 83%
    13:00 +25°C° 0.6 mm 1 mps 670 mmHg 82%
    14:00 +25°C° 0.6 mm 1 mps 670 mmHg 84%
    15:00 +24°C° 0.6 mm 1 mps 670 mmHg 86%
    16:00 +24°C° 0.6 mm 1 mps 669 mmHg 88%
    17:00 +21°C° 0.6 mm 0 mps 670 mmHg 90%
    18:00 +20°C° 0.6 mm 0 mps 670 mmHg 93%
    19:00 +19°C° 0.6 mm 0 mps 670 mmHg 95%
    20:00 +19°C° 0.5 mm 0 mps 671 mmHg 95%
    21:00 +19°C° 0.5 mm 0 mps 671 mmHg 94%
    22:00 +19°C° 0.5 mm 0 mps 671 mmHg 94%
    23:00 +19°C° 0.5 mm 0 mps 671 mmHg 94%

    Day after tomorrow, 24 November, Sunday

    Time Temperature Precipitation Wind Pressure Humidity
    00:00 +18°C° 0.5 mm 0 mps 671 mmHg 94%
    01:00 +18°C° 0.5 mm 0 mps 671 mmHg 93%
    02:00 +18°C° 0.5 mm 0 mps 670 mmHg 94%
    03:00 +18°C° 0.5 mm 0 mps 670 mmHg 94%
    04:00 +18°C° 0.5 mm 0 mps 670 mmHg 94%
    05:00 +18°C° 0.2 mm 0 mps 670 mmHg 94%
    06:00 +19°C° 0.2 mm 0 mps 671 mmHg 93%
    07:00 +19°C° 0.2 mm 0 mps 672 mmHg 92%
    08:00 +20°C° 0.4 mm 0 mps 672 mmHg 91%
    09:00 +23°C° 0.4 mm 1 mps 672 mmHg 90%
    10:00 +23°C° 0.4 mm 1 mps 672 mmHg 89%
    11:00 +24°C° 0.6 mm 1 mps 671 mmHg 86%
    12:00 +25°C° 0.6 mm 1 mps 670 mmHg 83%
    13:00 +25°C° 0.6 mm 1 mps 670 mmHg 80%
    14:00 +25°C° 0.5 mm 1 mps 669 mmHg 83%
    15:00 +25°C° 0.5 mm 1 mps 669 mmHg 85%
    16:00 +24°C° 0.5 mm 1 mps 669 mmHg 88%
    17:00 +23°C° 1 mm 1 mps 669 mmHg 91%
    18:00 +20°C° 1 mm 0 mps 669 mmHg 93%
    19:00 +19°C° 1 mm 0 mps 670 mmHg 95%
    20:00 +19°C° 0.3 mm 0 mps 670 mmHg 95%
    21:00 +19°C° 0.3 mm 0 mps 670 mmHg 94%
    22:00 +19°C° 0.3 mm 0 mps 671 mmHg 93%
    23:00 +19°C° 0.3 mm 0 mps 670 mmHg 93%

    25 November, Monday

    Time Temperature Precipitation Wind Pressure Humidity
    00:00 +19°C° 0.3 mm 0 mps 670 mmHg 93%
    01:00 +18°C° 0.3 mm 0 mps 669 mmHg 92%
    02:00 +18°C° 0.2 mm 0 mps 669 mmHg 92%
    03:00 +18°C° 0.2 mm 0 mps 669 mmHg 93%
    04:00 +18°C° 0.2 mm 0 mps 669 mmHg 93%
    05:00 +18°C° 0 mm 0 mps 670 mmHg 91%
    06:00 +19°C° 0 mm 0 mps 670 mmHg 90%
    07:00 +19°C° 0 mm 0 mps 671 mmHg 89%
    08:00 +23°C° 0.2 mm 1 mps 671 mmHg 86%
    09:00 +24°C° 0.2 mm 1 mps 671 mmHg 83%
    10:00 +25°C° 0.2 mm 1 mps 671 mmHg 80%
    11:00 +26°C° 0.2 mm 1 mps 670 mmHg 79%
    12:00 +26°C° 0.2 mm 1 mps 669 mmHg 77%
    13:00 +26°C° 0.2 mm 2 mps 669 mmHg 76%
    14:00 +26°C° 0.2 mm 1 mps 668 mmHg 79%
    15:00 +26°C° 0.2 mm 1 mps 668 mmHg 81%
    16:00 +25°C° 0.2 mm 1 mps 668 mmHg 84%
    17:00 +24°C° 0.6 mm 1 mps 668 mmHg 87%
    18:00 +23°C° 0.6 mm 1 mps 668 mmHg 91%
    19:00 +20°C° 0.6 mm 0 mps 669 mmHg 94%
    20:00 +22°C° 0.6 mm 1 mps 669 mmHg 93%
    21:00 +21°C° 0.6 mm 1 mps 670 mmHg 92%
    22:00 +21°C° 0.6 mm 1 mps 670 mmHg 91%
    23:00 +21°C° 1.3 mm 1 mps 670 mmHg 91%

    26 November, Tuesday

    Time Temperature Precipitation Wind Pressure Humidity
    00:00 +21°C° 1.3 mm 1 mps 669 mmHg 91%
    01:00 +20°C° 1.3 mm 1 mps 669 mmHg 90%
    02:00 +20°C° 0.8 mm 1 mps 669 mmHg 90%
    03:00 +20°C° 0.8 mm 1 mps 669 mmHg 90%
    04:00 +20°C° 0.8 mm 1 mps 669 mmHg 89%
    05:00 +20°C° 0.2 mm 1 mps 669 mmHg 89%
    06:00 +21°C° 0.2 mm 1 mps 670 mmHg 88%
    07:00 +22°C° 0.2 mm 1 mps 671 mmHg 87%
    08:00 +23°C° 0 mm 1 mps 671 mmHg 82%
    09:00 +25°C° 0 mm 1 mps 671 mmHg 77%
    10:00 +27°C° 0 mm 1 mps 672 mmHg 71%
    11:00 +27°C° 0.2 mm 1 mps 671 mmHg 72%
    12:00 +27°C° 0.2 mm 2 mps 670 mmHg 73%
    13:00 +27°C° 0.2 mm 2 mps 669 mmHg 74%
    14:00 +27°C° 0.3 mm 1 mps 669 mmHg 77%
    15:00 +26°C° 0.3 mm 1 mps 669 mmHg 79%
    16:00 +26°C° 0.3 mm 1 mps 668 mmHg 81%
    17:00 +25°C° 0.7 mm 1 mps 669 mmHg 85%
    18:00 +23°C° 0.7 mm 1 mps 669 mmHg 89%
    19:00 +22°C° 0.7 mm 1 mps 669 mmHg 94%
    20:00 +22°C° 0.2 mm 1 mps 670 mmHg 93%
    21:00 +22°C° 0.2 mm 1 mps 670 mmHg 91%
    22:00 +21°C° 0.2 mm 1 mps 670 mmHg 90%
    23:00 +21°C° 0.4 mm 1 mps 670 mmHg 90%

    27 November, Wednesday

    Time Temperature Precipitation Wind Pressure Humidity
    00:00 +21°C° 0.4 mm 1 mps 670 mmHg 89%
    01:00 +21°C° 0.4 mm 1 mps 670 mmHg 88%
    02:00 +21°C° 0.2 mm 1 mps 669 mmHg 88%
    03:00 +20°C° 0.2 mm 1 mps 669 mmHg 87%
    04:00 +20°C° 0.2 mm 1 mps 669 mmHg 87%
    05:00 +21°C° 0 mm 1 mps 670 mmHg 86%
    06:00 +21°C° 0 mm 1 mps 670 mmHg 86%
    07:00 +22°C° 0 mm 1 mps 671 mmHg 85%
    08:00 +24°C° 0 mm 1 mps 672 mmHg 78%
    09:00 +26°C° 0 mm 1 mps 672 mmHg 71%
    10:00 +28°C° 0 mm 1 mps 673 mmHg 64%
    11:00 +28°C° 0.1 mm 1 mps 672 mmHg 65%
    12:00 +28°C° 0.1 mm 1 mps 671 mmHg 66%
    13:00 +28°C° 0.1 mm 1 mps 670 mmHg 67%
    14:00 +28°C° 0.3 mm 1 mps 670 mmHg 72%
    15:00 +27°C° 0.3 mm 1 mps 669 mmHg 76%
    16:00 +26°C° 0.3 mm 1 mps 669 mmHg 81%
    17:00 +25°C° 0.9 mm 1 mps 669 mmHg 84%
    18:00 +24°C° 0.9 mm 1 mps 670 mmHg 87%
    19:00 +22°C° 0.9 mm 1 mps 670 mmHg 90%
    20:00 +22°C° 0.2 mm 1 mps 670 mmHg 89%
    21:00 +22°C° 0.2 mm 1 mps 671 mmHg 88%
    22:00 +21°C° 0.2 mm 1 mps 671 mmHg 87%
    23:00 +21°C° 0.5 mm 1 mps 671 mmHg 86%
    Show more